STARLINK-34110, 63811

Orbit data source: Space-Track

STARLINK-34110, 63811 is a payload satellite owned by SpaceX/Seattle (US) in LEO that was launched on Sun, 04 May 2025 UTC via an FALCON 9 launch vehicle from the Air Force Eastern Test Range (AFETR). Payload-class satellites include a variety of spacecraft equipped with specific instruments for various scientific and technological missions. These include communications satellites like Starlink; space stations such as the ISS; scientific satellites like the Hubble; Earth observation satellites from companies like Planet Labs, Umbra, and HawkEye 360; GPS; miniature CubeSats for education and research; and military/defense satellites.

Loading next visibility...
Identifier
63811, 2025-092H
Orbit
LEO
Last TLE update
11 hours ago
Origin
Manufacturer
SpaceX/Seattle
Mission
Operational Commercial Communications
Bus & Motor
STARLINK V2MO, Unknown motor
Mass
575 kg wet, ~530 kg dry
Launch date (UTC)
2025-05-04 (2 months ago)
Launch vehicle
FALCON 9
Launch site
Air Force Eastern Test Range (AFETR)
Object type
Payload
Rocket body
Debris
Shape & HBR
Box + 1 Pan, 29 m
Radar Cross Section
41.120 m², Large (>1 m²)

Expand to show TLE details & history

TLE from 11 hours ago
0 STARLINK-34110
1 63811U 25092H   25189.15437633  .00012671  00000-0  46907-3 0  9990
2 63811  43.0019 113.7629 0001244 280.3308  79.7404 15.27587570 11260
Epoch: 2025-07-08T03:42Z
TLE epoch observation values (Epoch: 2025-07-08T03:42:18.114Z)
Latitude
0.00001°
Longitude
131.834°
Altitude
482.65 km
Speed
7.626 km/s
True Right ascension
07h 35m 03s
True Declination
0° 00' 00"
Sunlit
Object was in daylight at epoch
Visualization orbit readout
Latitude
-35.25467°
Longitude
80.38869°
Altitude
492.29 km
Speed
7.62 km/s
Apparent Right ascension
08h 10m 07s
Apparent Declination
-73° 59' 11"
Sunlit
Object is in daylight
Visualization observer readout
Local Sidereal Time
02:33:03
Azimuth
160.018° S
Elevation
-36.558°
Doppler factor
1
Orbital elements
Apogee altitude
485.825 km
Perigee altitude
484.118 km
Semi-major axis
6,863.108 km
Eccentricity
0.00012
Inclination
43.0019°
RAAN
113.7629°
Arg. of periapsis
280.3308°
True anomaly
Unknown
Mean anomaly
79.7404°
Eccentric anomaly
Unknown
Mean motion
3.81735 °/min
Orbital period
94.31 mins
BSTAR
0.00046907
Loading maneuver chart data...
Loading SW <> Apogee altitude chart data...
Loading historical data...
Loading historical data...
Loading historical data...
Loading historical data...
Loading historical data...
Loading historical data...
Loading historical data...

STARLINK-34110 Visibility forecast

Observer location: undefined°, undefined°

Span
Click to sort rows by Start time (UTC) header in descending order
Start Az.
Max El. time (UTC)
Max El. Az.
Max El.
End time (UTC)
End Az.
6 mins2025-07-08 22:46:21.049Z231.442° WSW2025-07-08 22:49:21.049Z117.403° SE38.835°2025-07-08 22:52:21.049Z76.291° E
6 mins2025-07-09 00:25:21.049Z278.941° WNW2025-07-09 00:28:21.049Z26.237° NE37.67°2025-07-09 00:31:21.049Z71.679° E
5 mins2025-07-09 02:05:21.049Z298.889° NW2025-07-09 02:07:21.049Z36.578° NE40.912°2025-07-09 02:10:21.049Z91.844° ESE
5 mins2025-07-09 03:44:21.049Z263.187° W2025-07-09 03:46:21.049Z189.365° SSW33.768°2025-07-09 03:49:21.049Z136.327° SSE
|